TimeCDT,TemperatureF,Dew PointF,Humidity,Sea Level PressureIn,VisibilityMPH,Wind Direction,Wind SpeedMPH,Gust SpeedMPH,PrecipitationIn,Events,Conditions,WindDirDegrees,DateUTC
12:53 AM,79.0,75.0,88,29.84,10.0,SE,5.8,-,N/A,,Clear,140,2013-08-27 05:53:00
1:53 AM,80.1,73.9,81,29.81,10.0,SSE,4.6,-,N/A,,Clear,150,2013-08-27 06:53:00
2:53 AM,79.0,73.0,82,29.80,10.0,SSE,4.6,-,N/A,,Clear,160,2013-08-27 07:53:00
3:53 AM,78.1,73.0,84,29.80,10.0,SE,5.8,-,N/A,,Clear,140,2013-08-27 08:53:00
4:53 AM,77.0,73.0,88,29.79,10.0,SSE,6.9,-,N/A,,Clear,150,2013-08-27 09:53:00
5:53 AM,77.0,72.0,84,29.79,10.0,SSE,4.6,-,N/A,,Clear,160,2013-08-27 10:53:00
6:53 AM,75.9,72.0,87,29.79,10.0,SE,5.8,-,N/A,,Clear,140,2013-08-27 11:53:00
7:53 AM,79.0,71.1,77,29.80,10.0,SE,4.6,-,N/A,,Clear,130,2013-08-27 12:53:00
8:53 AM,82.9,71.1,67,29.80,10.0,WSW,4.6,-,N/A,,Clear,250,2013-08-27 13:53:00
9:53 AM,84.9,71.1,63,29.80,10.0,WSW,8.1,-,N/A,,Clear,240,2013-08-27 14:53:00
10:53 AM,87.1,71.1,59,29.80,10.0,SW,3.5,-,N/A,,Clear,230,2013-08-27 15:53:00
11:53 AM,90.0,71.1,54,29.80,10.0,SE,3.5,-,N/A,,Clear,130,2013-08-27 16:53:00
12:53 PM,91.9,72.0,52,29.79,10.0,Variable,3.5,-,N/A,,Clear,0,2013-08-27 17:53:00
1:53 PM,95.0,73.0,49,29.78,10.0,Variable,4.6,-,N/A,,Scattered Clouds,0,2013-08-27 18:53:00
2:53 PM,91.9,75.9,59,29.78,10.0,North,9.2,-,N/A,,Mostly Cloudy,350,2013-08-27 19:53:00
3:53 PM,91.0,75.9,61,29.79,10.0,North,9.2,-,N/A,,Overcast,360,2013-08-27 20:53:00
4:53 PM,91.0,75.9,61,29.80,10.0,NNE,6.9,-,N/A,,Mostly Cloudy,20,2013-08-27 21:53:00
5:53 PM,90.0,75.9,63,29.81,10.0,NNW,8.1,-,N/A,,Mostly Cloudy,340,2013-08-27 22:53:00
6:53 PM,89.1,73.9,61,29.81,10.0,NNE,8.1,-,N/A,,Clear,30,2013-08-27 23:53:00
7:53 PM,86.0,73.0,65,29.83,10.0,NNE,8.1,-,N/A,,Clear,20,2013-08-28 00:53:00
8:53 PM,84.0,71.1,65,29.86,10.0,North,10.4,-,N/A,,Clear,10,2013-08-28 01:53:00
9:53 PM,82.0,71.1,69,29.88,10.0,NNE,8.1,-,N/A,,Clear,30,2013-08-28 02:53:00
10:53 PM,80.1,71.1,74,29.89,10.0,NNE,4.6,-,N/A,,Clear,30,2013-08-28 03:53:00
11:53 PM,78.1,71.1,79,29.90,10.0,Calm,Calm,-,N/A,,Clear,0,2013-08-28 04:53:00